Location: Vancouver
(49.2500°N, 123.1330°W)
Time: 14:25:29
(UTC-08:00)

SO-67 - Visible Passes

Search period start: 29 January 2015 00:00
Search period end: 08 February 2015 00:00
Orbit: 450 x 454 km, 97.1° (Epoch: 29 January)

Date Brightness Start Highest point End Pass type
(mag) Time Alt. Az. Time Alt. Az. Time Alt. Az.
29 Jan ? 18:09:27 10° SSE 18:12:49 69° ENE 18:16:14 10° N visible
30 Jan ? 07:00:06 10° NNE 07:03:23 42° E 07:06:38 10° S visible
30 Jan ? 19:08:37 10° SSW 19:11:22 22° W 19:14:06 10° NW visible
31 Jan ? 06:26:23 10° NE 06:28:43 17° E 06:31:07 10° SE visible
31 Jan ? 18:33:25 10° S 18:36:46 58° W 18:40:08 10° NNW visible
01 Feb ? 17:59:01 10° SSE 18:02:19 50° ENE 18:05:38 10° N visible
01 Feb ? 19:33:58 10° WSW 19:35:30 12° W 19:36:55 10° WNW visible
02 Feb ? 06:49:40 10° NNE 06:52:47 32° E 06:55:53 10° SSE visible
02 Feb ? 18:57:41 10° SSW 19:00:43 29° W 19:03:44 10° NNW visible
03 Feb ? 06:16:17 10° ENE 06:18:00 13° E 06:19:49 10° ESE visible
03 Feb ? 18:22:43 10° S 18:26:06 80° WSW 18:29:32 10° NNW visible
04 Feb ? 17:48:29 10° SE 17:51:39 37° ENE 17:54:51 10° N visible
04 Feb ? 19:22:27 10° SW 19:24:41 16° W 19:26:50 10° NW visible
05 Feb ? 06:39:08 10° NE 06:41:58 24° E 06:44:50 10° SSE visible
05 Feb ? 18:46:41 10° SSW 18:49:53 39° W 18:53:07 10° NNW visible
06 Feb ? 06:06:45 10° E 06:07:03 10° E 06:07:33 10° E visible
06 Feb ? 18:11:54 10° SSE 18:15:17 75° ENE 18:18:42 10° N visible
07 Feb ? 19:11:02 10° SW 19:13:42 21° W 19:16:19 10° NW visible
